Weather in Sen'kino

Russia / Perm Krai     58°27′11″N   56°15′17″E
В апреле 2022 года жителям России запретили посещать сайт meteo.paraplan.net по решению Генеральной прокуратуры. Аудитория сайта уменьшилась в 10 раз. Владельцы сайта не видят смысла в поддержке погодного сервера в таких условиях. Сайт будет закрыт в октябре.
temp.,
°C
wind,
m/s
gust,
m/s
humid.,
%
clouds,
%
prec.,
mm/h
press.,
hPa
HPBL,
m
29 september, thu
thu2923:00−3ese39710 0.0 1027273
02:00−3ese311731 0.0 1027378
05:00−3ese411752 0.0 1027384
08:00−3ese412765 0.0 1026515
11:00+2ese69534 0.0 1026833
14:00+5ese68403 0.0 10251154
17:00+5ese59461 0.0 10251143
20:00+1ese412642 0.0 1026542
30 september, fri
fri3023:00−1ese514725 0.0 1027577
02:00−2ese5137719 0.0 1028488
05:00−2ese5137723 0.0 1028484
08:00−2ese5137442 0.0 1029509
11:00+3se595764 0.0 1029673
14:00+7se575125 0.0 10291011
17:00+7se47585 0.0 1029987
20:00+2ese411798 0.0 1031272
1 october, sat
sat123:000se4118723 0.0 1031271
02:000se3985100 0.0 1031275
05:000se3882100 0.0 1030271
08:000se3881100 0.0 1030274
11:00+2sse3677100 0.0 1030291
14:00+6sse366792 0.0 1028555
17:00+9sse376741 0.0 1026752
20:00+4se378722 0.0 1026127
2 october, sun
sun223:00+3se279467 0.0 1025141
02:00+3se2894100 0.0 1024163
05:00+2se3109576 0.0 1023229
08:00+3sse41290100 0.0 1023310
11:00+8sse5966100 0.0 1021456
14:00+11sse5959100 0.0 1019721
17:00+11sse41166100 0.0 1018662
20:00+11sse51372100 0.0 1017588
3 october, mon
mon323:00+10sse61574100 0.1 1015650
02:00+10sse61675100 1.1 1013652
05:00+9s51494100 4.9 1013665
08:00+8s51481100 0.4 1017590
11:00+9s41380100 1.6 1018535
14:00+9s41190100 4.4 1019477
17:00+9s3988100 6.8 1020387
20:00+8se1192100 2.9 102138